Regional Weather Roundup
Issued by NWS

Home | Current Version | Previous Version | Text Only | Print | Product List | Glossary Off
Versions: 1 2 3 4 5 6 7 8 9 10 11 12 13 14 15 16 17 18 19 20 21 22 23 24 25 26 27 28 29 30 31 32 33 34 35 36 37 38 39 40 41 42 43 44 45 46 47 48 49 50

000
ASUS43 KFSD 180010
RWRSD

WEATHER ROUNDUP FOR SOUTH DAKOTA
NATIONAL WEATHER SERVICE SIOUX FALLS SD
700 PM CDT FRI APR 17 2015

NOTE: "FAIR" INDICATES FEW OR NO CLOUDS BELOW 12,000 FEET WITH NO
SIGNIFICANT WEATHER AND/OR OBSTRUCTIONS TO VISIBILITY.


SDZ001>005-009-010-012>017-180100-
NORTHWEST AND NORTH CENTRAL SOUTH DAKOTA

CITY           SKY/WX    TMP DP  RH WIND       PRES   REMARKS
BUFFALO          N/A     65  28  24 NE7       30.04S
FAITH            N/A     65  22  19 E6        30.09S
MOBRIDGE       MOSUNNY   70  24  17 CALM      30.05S
$$

SDZ012>016-024>037-041>051-057-063-072>074-180100-
SOUTHWEST AND SOUTH CENTRAL SOUTH DAKOTA

CITY           SKY/WX    TMP DP  RH WIND       PRES   REMARKS
RAPID CTY ARPT CLOUDY    52  39  61 SW6       30.12S
PIERRE         CLOUDY    69  30  23 E6        30.05F
CUSTER         LGT RAIN  40  36  86 NE8       30.14S
ELLSWORTH AFB  CLOUDY    55  36  48 S9        30.10F
PHILIP         LGT RAIN  62  37  39 E6        30.09S
PINE RIDGE     RAIN      48  45  89 NE13      30.10S FOG
SPEARFISH      FAIR      55  36  47 SE9       30.12F
WINNER         LGT RAIN  59  52  77 SW9       30.08S
$$

SDZ004>011-016>023-039-040-180100-
NORTHEAST SOUTH DAKOTA

CITY           SKY/WX    TMP DP  RH WIND       PRES   REMARKS
ABERDEEN       MOSUNNY   72  21  14 N8        30.05F
WATERTOWN      SUNNY     68  23  18 N6        30.06F
BROOKINGS      SUNNY     72  27  18 N9        30.05S
SISSETON         N/A     71  18  13 N7        30.04F
$$

SDZ017-020-022-023-036>040-048>070-180100-
SOUTHEAST SOUTH DAKOTA

CITY           SKY/WX    TMP DP  RH WIND       PRES   REMARKS
SIOUX FALLS    CLOUDY    71  42  35 N7        30.02F
HURON          PTSUNNY   71  31  22 NE6       30.04F
CHAMBERLAIN    CLOUDY    68  36  30 NE3       30.05S
MITCHELL       CLOUDY    72  33  24 N10       30.04S
YANKTON        CLOUDY    66  52  59 NW5       30.01F
$$

ABBREVIATIONS USED IN REMARKS
   TC - TEMPERATURE IN CELSIUS
  WCI - WIND CHILL INDEX
   HX - HEAT INDEX
  VSB - VISIBILITY




USA.gov is the U.S. government's official web portal to all federal, state and local government web resources and services.